SCP
0 0 0 0 0 0 0 0 0 0 0 0 0 0 0 0 -0 0 0 -0 -0 -0 0 0 0 0 0 0 -0 0 0 0 0 0 0 0 0 -0
0 0 0 0 0 0 0 0 0 0 0 0 0 0 0 0 0 0 0 0 0 0 0 0 0 0 0 0 0 0 0 0 0 0 0 0 0 0
0 0 0 0 0 0 0 0 0 0 0 0 0 0 0 0 0 0 0 0 0 0 0 0 0 0 0 0 0 0 0 0 0 0 0 0 0 -0
0 0 0 0 0 0 0 0 0 0 0 0 0 0 0 0 0 0 0 0 0 0 0 0 0 0 0 0 0 0 0 0 0 0 0 0 0 -0
0 0 0 0 0 0 0 0 0 0 0 0 0 0 0 0 0 0 0 0 0 0 0 0 0 0 0 0 0 0 0 0 0 0 0 0 0 -0
0 0 0 0 0 0 0 0 0 0 0 0 0 0 0 0 0 0 0 0 0 0 0 0 0 0 0 0 0 0 0 0 0 0 0 0 0 0
0 0 0 0 0 0 0 0 0 0 0 0 0 0 0 0 0 0 0 0 0 0 0 0 0 0 0 0 0 0 0 0 0 0 0 0 0 0
0 0 0 0 0 0 0 0 0 0 0 0 0 0 0 0 0 0 0 0 0 0 0 0 0 0 0 0 0 0 0 0 0 0 0 0 0 0
0 0 0 0 0 0 0 0 0 0 0 0 0 0 0 0 0 0 0 0 0 0 0 0 0 0 0 0 0 0 0 0 0 0 0 0 0 0
0 0 0 0 0 0 0 0 0 0 0 0 0 0 0 0 0 0 0 0 0 0 0 0 0 0 0 0 0 0 0 0 0 0 0 0 0 0
0 0 0 0 0 0 0 0 0 0 0 0 0 0 0 0 0 0 0 0 0 0 0 0 0 0 0 0 0 0 0 0 0 0 0 0 0 0
0 0 0 0 0 0 0 0 0 0 0 0 0 0 0 0 0 0 0 0 0 0 0 0 0 0 0 0 0 0 0 0 0 0 0 0 0 0
0 0 0 0 0 0 0 0 0 0 0 0 0 0 0 0 0 0 0 0 0 0 0 0 0 0 0 0 0 0 0 0 0 0 0 0 0 0
0 0 0 0 0 0 0 0 0 0 0 0 0 0 0 0 0 0 0 0 0 0 0 0 0 0 0 0 0 0 0 0 0 0 0 0 0 0
0 0 0 0 0 0 0 0 0 0 0 0 0 0 0 0 0 0 0 0 0 0 0 0 0 0 0 0 0 0 0 0 0 0 0 0 0 0
0 0 0 0 0 0 0 0 0 0 0 0 0 0 0 0 0 0 0 0 0 0 0 0 0 0 0 0 0 0 0 0 0 0 0 0 0 0
0 0 0 0 0 0 0 0 0 0 0 0 0 0 0 0 0 0 0 0 0 0 0 0 0 0 0 0 0 0 0 0 0 0 0 0 0 0
0 0 0 0 0 0 0 0 0 0 0 0 0 0 0 0 0 0 0 0 0 0 0 0 0 0 0 0 0 0 0 0 0 0 0 0 0 0
0 0 0 0 0 0 0 0 0 0 0 0 0 0 0 0 0 0 0 0 0 0 0 0 0 0 0 0 0 0 0 0 0 0 0 0 0 0
0 0 0 0 0 0 0 0 0 0 0 0 0 0 0 0 0 0 0 0 0 0 0 0 0 0 0 0 0 0 0 0 0 0 0 0 0 0
0 0 0 0 0 0 0 0 0 0 0 0 0 0 0 0 0 0 0 0 0 0 0 0 0 0 0 0 0 0 0 0 0 0 0 0 0 0
0 0 0 0 0 0 0 0 0 0 0 0 0 0 0 0 0 0 0 0 0 0 0 0 0 0 0 0 0 0 0 0 0 0 0 0 0 0
0 0 0 0 0 0 0 0 0 0 0 0 0 0 0 0 0 0 0 0 0 0 0 0 0 0 0 0 0 0 0 0 0 0 0 0 0 0
Wind_Speed_500mb
26 27 27 22 24 25 27 26 24 18 33 17 17 16 26 39 39 36 35 38 34 34 26 31 25 23 25 22 23 22 18 20 20 19 21 19 19 11
27 28 29 26 27 27 28 29 30 32 37 36 38 42 36 35 32 33 33 34 34 33 35 37 32 25 31 27 26 24 19 17 18 18 13 14 10 20
28 31 30 30 28 28 30 32 33 35 48 55 48 41 41 37 35 35 34 33 33 32 32 34 33 30 32 32 26 24 20 16 15 16 11 7 8 5
29 32 31 32 33 33 34 33 36 36 45 53 54 49 43 40 41 41 34 32 35 35 34 34 34 34 31 32 28 26 21 15 12 11 7 1 5 10
29 32 32 34 35 35 37 38 37 38 42 50 52 53 54 45 44 40 40 39 37 38 38 38 35 34 35 29 26 22 21 17 11 7 8 7 11 17
29 30 31 33 36 36 38 39 39 42 43 48 52 51 52 50 50 49 48 40 40 37 38 40 37 32 29 28 25 20 21 18 13 8 6 10 17 22
28 30 33 34 35 38 41 41 43 45 47 50 55 56 54 49 49 50 52 47 45 40 35 31 31 29 29 31 27 28 23 21 16 9 6 9 13 18
30 28 30 32 33 35 38 42 44 45 47 48 50 54 56 51 47 49 51 50 50 45 40 36 39 38 37 35 34 34 29 23 21 16 12 9 12 19
29 29 27 29 31 32 31 33 35 35 39 44 49 52 53 50 48 51 51 53 53 48 52 60 50 44 37 35 34 34 33 29 26 22 18 16 15 15
30 29 31 31 31 33 34 33 32 31 30 32 39 45 49 49 48 48 52 56 59 57 50 62 57 46 38 35 34 32 32 33 29 26 23 22 21 19
30 31 34 34 35 37 40 43 43 36 30 29 33 38 43 43 44 47 51 52 58 59 50 50 59 48 38 29 33 36 32 35 33 29 26 25 26 25
30 31 34 38 41 42 46 49 53 51 54 49 38 33 37 40 42 46 47 52 52 56 42 33 42 28 18 22 15 20 31 32 30 31 30 26 29 28
38 39 39 40 42 43 46 47 49 52 54 56 58 51 44 43 40 39 43 49 55 57 55 43 45 39 37 41 37 26 14 15 24 28 31 30 28 27
41 43 45 46 48 48 48 50 51 52 52 54 56 57 54 53 44 42 39 40 45 52 49 44 47 50 46 47 46 38 25 24 25 25 28 27 26 27
46 46 47 48 50 53 52 54 55 55 54 55 55 53 51 52 52 46 45 43 41 42 43 44 49 52 54 55 57 51 45 35 39 36 34 34 33 34
53 53 52 53 51 52 54 54 53 51 49 50 55 50 46 47 51 44 45 43 43 41 37 40 39 42 49 53 53 53 47 40 33 40 41 40 42 43
59 62 60 58 59 57 55 53 52 53 53 52 47 47 47 47 49 46 48 47 44 47 45 39 39 42 44 46 49 47 48 49 44 41 51 45 41 48
59 62 64 63 64 64 62 62 59 56 53 49 52 47 49 53 54 51 48 50 53 46 49 43 42 44 48 52 51 53 54 52 45 38 37 46 52 55
60 63 66 66 66 65 64 63 64 60 54 49 46 51 54 53 53 54 52 53 54 52 54 51 46 45 50 57 57 54 51 49 45 45 41 43 43 44
68 65 64 63 64 65 64 63 64 62 56 50 50 51 51 52 55 55 58 53 52 49 51 49 55 48 49 51 55 52 50 48 43 44 43 40 40 45
72 60 58 60 59 60 60 60 60 61 58 56 55 56 53 52 53 53 50 50 49 51 53 54 48 52 56 48 48 53 53 47 43 42 41 41 40 44
65 63 60 59 59 60 63 60 60 58 53 55 57 56 53 52 54 53 51 54 51 52 52 51 48 45 49 52 48 49 57 44 39 39 42 43 40 30
59 56 61 62 63 66 67 62 55 53 58 61 60 57 59 61 55 52 55 53 51 51 51 55 46 42 47 50 50 51 50 48 43 44 46 43 43 44
Wind_Direction_500mb
297 298 298 299 290 284 282 284 287 293 309 315 298 300 300 302 307 311 319 326 333 335 330 328 331 327 327 331 321 321 319 317 329 350 358 6 23 8
294 294 296 298 293 287 283 278 274 274 271 282 294 300 304 305 308 308 314 319 325 327 330 333 339 336 337 331 328 325 326 320 318 328 351 356 39 35
292 292 294 294 293 289 285 281 277 274 276 287 290 298 300 301 301 300 306 309 313 317 320 320 324 332 335 326 329 324 326 326 319 321 338 345 56 103
295 290 293 290 290 289 287 283 280 280 281 286 293 296 296 298 300 300 300 300 304 305 309 313 316 316 320 323 325 323 326 333 329 314 323 354 131 114
303 298 296 291 290 289 286 284 283 281 280 284 290 296 301 303 300 297 298 297 298 298 300 305 306 311 313 313 318 322 318 325 339 315 274 185 167 141
309 303 298 292 290 289 287 288 287 285 284 283 287 291 295 301 302 305 301 299 295 291 293 296 297 301 305 307 308 310 308 310 315 315 260 224 196 186
318 310 303 298 294 293 291 290 288 287 288 288 288 290 291 295 298 302 302 303 300 300 296 293 288 289 300 301 300 302 302 298 295 289 256 222 209 212
330 325 318 311 305 299 295 293 293 293 292 289 289 290 293 297 297 295 295 298 300 300 295 286 285 287 289 287 289 288 286 285 283 277 264 240 211 203
333 333 332 327 322 317 311 306 301 296 293 293 292 292 294 295 294 291 292 291 291 291 291 293 294 292 285 277 279 276 276 274 272 266 258 246 237 225
327 328 329 331 332 330 327 322 316 313 304 294 291 293 292 292 288 287 286 287 289 287 288 289 293 294 284 277 269 267 265 271 265 261 253 248 240 235
317 317 318 319 320 319 317 315 312 311 306 303 301 297 294 292 290 284 281 284 287 289 292 284 289 302 291 286 269 262 260 258 263 260 253 243 237 236
319 316 312 310 309 308 307 309 310 309 307 306 299 295 300 299 292 284 284 280 281 288 293 283 291 297 307 293 290 277 256 252 253 260 260 250 238 235
321 321 319 317 315 313 311 309 307 304 300 297 295 294 293 296 295 290 280 275 276 272 277 274 277 281 280 282 283 283 285 257 252 253 265 263 251 236
322 321 321 320 319 316 312 309 308 307 304 300 297 293 288 286 285 286 284 277 275 276 277 273 266 270 275 277 281 279 260 248 258 261 257 255 249 246
319 318 318 316 314 314 314 313 311 310 308 306 304 301 296 294 292 286 286 286 278 273 270 266 263 263 269 272 277 279 283 270 258 245 240 244 245 246
315 314 315 314 312 310 309 309 310 310 308 303 303 302 304 303 296 298 296 286 283 277 272 268 268 267 269 269 272 273 274 269 262 248 240 237 238 240
313 312 313 313 311 309 305 303 303 305 309 314 305 303 304 306 304 299 294 290 284 279 276 270 266 268 269 268 265 268 274 276 275 273 254 249 244 243
305 305 306 307 307 308 307 305 303 302 301 306 312 303 301 302 302 302 297 290 287 288 273 273 267 268 266 264 261 265 269 273 281 278 272 262 253 245
299 300 300 300 300 300 301 301 300 300 298 294 294 297 297 298 298 295 292 289 282 281 276 272 271 267 265 265 269 266 271 279 280 273 269 266 267 258
303 299 295 294 294 296 296 297 297 297 295 293 292 293 292 294 294 292 288 289 285 280 283 276 262 262 259 268 273 276 271 269 267 270 271 269 263 253
307 303 299 299 297 296 296 295 294 293 293 295 295 293 293 295 294 294 288 287 287 276 280 279 278 271 270 263 263 266 267 269 269 269 269 264 261 258
306 300 299 300 299 299 300 298 294 292 291 291 290 291 294 297 292 293 286 283 290 279 276 274 279 273 272 258 266 273 276 271 264 263 259 258 255 257
302 298 300 300 301 303 300 297 294 291 292 291 292 284 290 294 288 293 287 281 281 283 279 279 274 271 264 257 259 274 274 272 267 265 263 258 257 256
Wind_Speed_850mb
26 27 27 22 24 25 27 26 24 18 33 17 17 16 26 39 39 36 35 38 34 34 26 31 25 23 25 22 23 22 18 20 20 19 21 19 19 11
27 28 29 26 27 27 28 29 30 32 37 36 38 42 36 35 32 33 33 34 34 33 35 37 32 25 31 27 26 24 19 17 18 18 13 14 10 20
28 31 30 30 28 28 30 32 33 35 48 55 48 41 41 37 35 35 34 33 33 32 32 34 33 30 32 32 26 24 20 16 15 16 11 7 8 5
29 32 31 32 33 33 34 33 36 36 45 53 54 49 43 40 41 41 34 32 35 35 34 34 34 34 31 32 28 26 21 15 12 11 7 1 5 10
29 32 32 34 35 35 37 38 37 38 42 50 52 53 54 45 44 40 40 39 37 38 38 38 35 34 35 29 26 22 21 17 11 7 8 7 11 17
29 30 31 33 36 36 38 39 39 42 43 48 52 51 52 50 50 49 48 40 40 37 38 40 37 32 29 28 25 20 21 18 13 8 6 10 17 22
28 30 33 34 35 38 41 41 43 45 47 50 55 56 54 49 49 50 52 47 45 40 35 31 31 29 29 31 27 28 23 21 16 9 6 9 13 18
30 28 30 32 33 35 38 42 44 45 47 48 50 54 56 51 47 49 51 50 50 45 40 36 39 38 37 35 34 34 29 23 21 16 12 9 12 19
29 29 27 29 31 32 31 33 35 35 39 44 49 52 53 50 48 51 51 53 53 48 52 60 50 44 37 35 34 34 33 29 26 22 18 16 15 15
30 29 31 31 31 33 34 33 32 31 30 32 39 45 49 49 48 48 52 56 59 57 50 62 57 46 38 35 34 32 32 33 29 26 23 22 21 19
30 31 34 34 35 37 40 43 43 36 30 29 33 38 43 43 44 47 51 52 58 59 50 50 59 48 38 29 33 36 32 35 33 29 26 25 26 25
30 31 34 38 41 42 46 49 53 51 54 49 38 33 37 40 42 46 47 52 52 56 42 33 42 28 18 22 15 20 31 32 30 31 30 26 29 28
38 39 39 40 42 43 46 47 49 52 54 56 58 51 44 43 40 39 43 49 55 57 55 43 45 39 37 41 37 26 14 15 24 28 31 30 28 27
41 43 45 46 48 48 48 50 51 52 52 54 56 57 54 53 44 42 39 40 45 52 49 44 47 50 46 47 46 38 25 24 25 25 28 27 26 27
46 46 47 48 50 53 52 54 55 55 54 55 55 53 51 52 52 46 45 43 41 42 43 44 49 52 54 55 57 51 45 35 39 36 34 34 33 34
53 53 52 53 51 52 54 54 53 51 49 50 55 50 46 47 51 44 45 43 43 41 37 40 39 42 49 53 53 53 47 40 33 40 41 40 42 43
59 62 60 58 59 57 55 53 52 53 53 52 47 47 47 47 49 46 48 47 44 47 45 39 39 42 44 46 49 47 48 49 44 41 51 45 41 48
59 62 64 63 64 64 62 62 59 56 53 49 52 47 49 53 54 51 48 50 53 46 49 43 42 44 48 52 51 53 54 52 45 38 37 46 52 55
60 63 66 66 66 65 64 63 64 60 54 49 46 51 54 53 53 54 52 53 54 52 54 51 46 45 50 57 57 54 51 49 45 45 41 43 43 44
68 65 64 63 64 65 64 63 64 62 56 50 50 51 51 52 55 55 58 53 52 49 51 49 55 48 49 51 55 52 50 48 43 44 43 40 40 45
72 60 58 60 59 60 60 60 60 61 58 56 55 56 53 52 53 53 50 50 49 51 53 54 48 52 56 48 48 53 53 47 43 42 41 41 40 44
65 63 60 59 59 60 63 60 60 58 53 55 57 56 53 52 54 53 51 54 51 52 52 51 48 45 49 52 48 49 57 44 39 39 42 43 40 30
59 56 61 62 63 66 67 62 55 53 58 61 60 57 59 61 55 52 55 53 51 51 51 55 46 42 47 50 50 51 50 48 43 44 46 43 43 44
Wind_Direction_850mb
297 298 298 299 290 284 282 284 287 293 309 315 298 300 300 302 307 311 319 326 333 335 330 328 331 327 327 331 321 321 319 317 329 350 358 6 23 8
294 294 296 298 293 287 283 278 274 274 271 282 294 300 304 305 308 308 314 319 325 327 330 333 339 336 337 331 328 325 326 320 318 328 351 356 39 35
292 292 294 294 293 289 285 281 277 274 276 287 290 298 300 301 301 300 306 309 313 317 320 320 324 332 335 326 329 324 326 326 319 321 338 345 56 103
295 290 293 290 290 289 287 283 280 280 281 286 293 296 296 298 300 300 300 300 304 305 309 313 316 316 320 323 325 323 326 333 329 314 323 354 131 114
303 298 296 291 290 289 286 284 283 281 280 284 290 296 301 303 300 297 298 297 298 298 300 305 306 311 313 313 318 322 318 325 339 315 274 185 167 141
309 303 298 292 290 289 287 288 287 285 284 283 287 291 295 301 302 305 301 299 295 291 293 296 297 301 305 307 308 310 308 310 315 315 260 224 196 186
318 310 303 298 294 293 291 290 288 287 288 288 288 290 291 295 298 302 302 303 300 300 296 293 288 289 300 301 300 302 302 298 295 289 256 222 209 212
330 325 318 311 305 299 295 293 293 293 292 289 289 290 293 297 297 295 295 298 300 300 295 286 285 287 289 287 289 288 286 285 283 277 264 240 211 203
333 333 332 327 322 317 311 306 301 296 293 293 292 292 294 295 294 291 292 291 291 291 291 293 294 292 285 277 279 276 276 274 272 266 258 246 237 225
327 328 329 331 332 330 327 322 316 313 304 294 291 293 292 292 288 287 286 287 289 287 288 289 293 294 284 277 269 267 265 271 265 261 253 248 240 235
317 317 318 319 320 319 317 315 312 311 306 303 301 297 294 292 290 284 281 284 287 289 292 284 289 302 291 286 269 262 260 258 263 260 253 243 237 236
319 316 312 310 309 308 307 309 310 309 307 306 299 295 300 299 292 284 284 280 281 288 293 283 291 297 307 293 290 277 256 252 253 260 260 250 238 235
321 321 319 317 315 313 311 309 307 304 300 297 295 294 293 296 295 290 280 275 276 272 277 274 277 281 280 282 283 283 285 257 252 253 265 263 251 236
322 321 321 320 319 316 312 309 308 307 304 300 297 293 288 286 285 286 284 277 275 276 277 273 266 270 275 277 281 279 260 248 258 261 257 255 249 246
319 318 318 316 314 314 314 313 311 310 308 306 304 301 296 294 292 286 286 286 278 273 270 266 263 263 269 272 277 279 283 270 258 245 240 244 245 246
315 314 315 314 312 310 309 309 310 310 308 303 303 302 304 303 296 298 296 286 283 277 272 268 268 267 269 269 272 273 274 269 262 248 240 237 238 240
313 312 313 313 311 309 305 303 303 305 309 314 305 303 304 306 304 299 294 290 284 279 276 270 266 268 269 268 265 268 274 276 275 273 254 249 244 243
305 305 306 307 307 308 307 305 303 302 301 306 312 303 301 302 302 302 297 290 287 288 273 273 267 268 266 264 261 265 269 273 281 278 272 262 253 245
299 300 300 300 300 300 301 301 300 300 298 294 294 297 297 298 298 295 292 289 282 281 276 272 271 267 265 265 269 266 271 279 280 273 269 266 267 258
303 299 295 294 294 296 296 297 297 297 295 293 292 293 292 294 294 292 288 289 285 280 283 276 262 262 259 268 273 276 271 269 267 270 271 269 263 253
307 303 299 299 297 296 296 295 294 293 293 295 295 293 293 295 294 294 288 287 287 276 280 279 278 271 270 263 263 266 267 269 269 269 269 264 261 258
306 300 299 300 299 299 300 298 294 292 291 291 290 291 294 297 292 293 286 283 290 279 276 274 279 273 272 258 266 273 276 271 264 263 259 258 255 257
302 298 300 300 301 303 300 297 294 291 292 291 292 284 290 294 288 293 287 281 281 283 279 279 274 271 264 257 259 274 274 272 267 265 263 258 257 256